| time (UTC) | temp F | wind direction | speed MPH | gust MPH | rain 1hr in | rain 24hr in | rain mn in | humidity % | barometer mb |
| 20260508084535 | 47 | 360 | 10.0 | 15.0 | 0.00 | 0.00 | 0.00 | 60 | 923.7 |
| 20260508084016 | 48 | 360 | 12.0 | 15.0 | 0.00 | 0.00 | 0.00 | 59 | 923.6 |
| 20260508083511 | 48 | 360 | 10.0 | 13.0 | 0.00 | 0.00 | 0.00 | 59 | 923.8 |
| 20260508083036 | 48 | 360 | 10.0 | 14.0 | 0.00 | 0.00 | 0.00 | 59 | 923.9 |
| 20260508082512 | 48 | 360 | 10.0 | 15.0 | 0.00 | 0.00 | 0.00 | 59 | 923.8 |
| 20260508082014 | 48 | 360 | 11.0 | 15.0 | 0.00 | 0.00 | 0.00 | 59 | 923.8 |
| 20260508081533 | 48 | 360 | 11.0 | 14.0 | 0.00 | 0.00 | 0.00 | 60 | 923.8 |
| 20260508081014 | 48 | 360 | 11.0 | 15.0 | 0.00 | 0.00 | 0.00 | 59 | 923.8 |
| 20260508080512 | 48 | 360 | 12.0 | 15.0 | 0.00 | 0.00 | 0.00 | 59 | 923.8 |
| 20260508080035 | 48 | 360 | 11.0 | 16.0 | 0.00 | 0.00 | 0.00 | 59 | 923.8 |
| 20260508075512 | 48 | 360 | 12.0 | 16.0 | 0.00 | 0.00 | 0.00 | 59 | 923.9 |
| 20260508075014 | 48 | 360 | 12.0 | 15.0 | 0.00 | 0.00 | 0.00 | 60 | 924.0 |
| 20260508074534 | 47 | 360 | 9.0 | 13.0 | 0.00 | 0.00 | 0.00 | 61 | 924.1 |
| 20260508074012 | 47 | 360 | 9.0 | 11.0 | 0.00 | 0.00 | 0.00 | 61 | 924.1 |
| 20260508073512 | 47 | 360 | 8.0 | 12.0 | 0.00 | 0.00 | 0.00 | 60 | 924.0 |
| 20260508073036 | 47 | 360 | 9.0 | 12.0 | 0.00 | 0.00 | 0.00 | 60 | 924.2 |
| 20260508072512 | 47 | 360 | 8.0 | 10.0 | 0.00 | 0.00 | 0.00 | 60 | 924.1 |
| 20260508072013 | 48 | 360 | 7.0 | 10.0 | 0.00 | 0.00 | 0.00 | 59 | 924.1 |
| 20260508071535 | 48 | 360 | 7.0 | 11.0 | 0.00 | 0.00 | 0.00 | 59 | 924.2 |
| 20260508071017 | 48 | 360 | 8.0 | 13.0 | 0.00 | 0.00 | 0.00 | 58 | 924.2 |
| 20260508070515 | 49 | 360 | 10.0 | 14.0 | 0.00 | 0.00 | 0.00 | 58 | 924.2 |
| 20260508070040 | 49 | 360 | 9.0 | 16.0 | 0.00 | 0.00 | 0.00 | 57 | 924.1 |
| 20260508065512 | 50 | 360 | 12.0 | 16.0 | 0.00 | 0.00 | 0.00 | 56 | 924.2 |
| 20260508065011 | 50 | 360 | 12.0 | 17.0 | 0.00 | 0.00 | 0.00 | 56 | 924.1 |
| 20260508064549 | 50 | 360 | 11.0 | 15.0 | 0.00 | 0.00 | 0.00 | 56 | 924.1 |
| 20260508064011 | 50 | 360 | 7.0 | 13.0 | 0.00 | 0.00 | 0.00 | 55 | 924.0 |
| 20260508063511 | 50 | 360 | 10.0 | 15.0 | 0.00 | 0.00 | 0.00 | 55 | 924.1 |
| 20260508063035 | 50 | 360 | 11.0 | 15.0 | 0.00 | 0.00 | 0.00 | 56 | 924.1 |
| 20260508062516 | 50 | 360 | 10.0 | 13.0 | 0.00 | 0.00 | 0.00 | 56 | 924.0 |
| 20260508062010 | 50 | 360 | 10.0 | 14.0 | 0.00 | 0.00 | 0.00 | 55 | 924.1 |
| 20260508061538 | 50 | 360 | 10.0 | 14.0 | 0.00 | 0.00 | 0.00 | 55 | 924.1 |
| 20260508061021 | 50 | 360 | 9.0 | 12.0 | 0.00 | 0.00 | 0.00 | 54 | 924.3 |
| 20260508060513 | 50 | 360 | 9.0 | 13.0 | 0.00 | 0.00 | 0.00 | 53 | 924.1 |
| 20260508060038 | 51 | 360 | 9.0 | 13.0 | 0.00 | 0.00 | 0.00 | 53 | 924.2 |
| 20260508055513 | 51 | 360 | 8.0 | 16.0 | 0.00 | 0.00 | 0.00 | 51 | 924.1 |
| 20260508055012 | 52 | 360 | 10.0 | 16.0 | 0.00 | 0.00 | 0.00 | 51 | 924.1 |
| 20260508054539 | 52 | 360 | 12.0 | 19.0 | 0.00 | 0.00 | 0.00 | 50 | 924.2 |
| 20260508054012 | 53 | 360 | 15.0 | 19.0 | 0.00 | 0.00 | 0.00 | 49 | 924.1 |
| 20260508053513 | 52 | 360 | 11.0 | 15.0 | 0.00 | 0.00 | 0.00 | 48 | 924.2 |
| 20260508053039 | 51 | 360 | 6.0 | 9.0 | 0.00 | 0.00 | 0.00 | 47 | 924.2 |
| 20260508052513 | 51 | 360 | 6.0 | 9.0 | 0.00 | 0.00 | 0.00 | 47 | 924.3 |
| 20260508052015 | 52 | 360 | 6.0 | 10.0 | 0.00 | 0.00 | 0.00 | 46 | 924.1 |
| 20260508051539 | 53 | 360 | 7.0 | 9.0 | 0.00 | 0.00 | 0.00 | 45 | 924.1 |
| 20260508051014 | 53 | 360 | 5.0 | 9.0 | 0.00 | 0.00 | 0.00 | 45 | 924.0 |
| 20260508050512 | 53 | 360 | 6.0 | 10.0 | 0.00 | 0.00 | 0.00 | 45 | 923.9 |
| 20260508050039 | 53 | 360 | 8.0 | 10.0 | 0.00 | 0.00 | 0.00 | 45 | 924.0 |
| 20260508045513 | 53 | 360 | 6.0 | 10.0 | 0.00 | 0.00 | 0.00 | 44 | 924.0 |
| 20260508045013 | 54 | 360 | 5.0 | 10.0 | 0.00 | 0.00 | 0.00 | 44 | 924.0 |
| 20260508044537 | 54 | 360 | 6.0 | 11.0 | 0.00 | 0.00 | 0.00 | 44 | 923.9 |
| 20260508044013 | 54 | 360 | 6.0 | 11.0 | 0.00 | 0.00 | 0.00 | 42 | 924.0 |
| 20260508043514 | 54 | 360 | 6.0 | 10.0 | 0.00 | 0.00 | 0.00 | 42 | 924.1 |
| 20260508043042 | 54 | 360 | 8.0 | 10.0 | 0.00 | 0.00 | 0.00 | 42 | 924.0 |
| 20260508042512 | 55 | 360 | 6.0 | 9.0 | 0.00 | 0.00 | 0.00 | 41 | 923.5 |
| 20260508042011 | 55 | 360 | 5.0 | 11.0 | 0.00 | 0.00 | 0.00 | 40 | 923.3 |
| 20260508041536 | 56 | 360 | 9.0 | 13.0 | 0.00 | 0.00 | 0.00 | 39 | 923.4 |
| 20260508041014 | 56 | 360 | 11.0 | 13.0 | 0.00 | 0.00 | 0.00 | 39 | 923.6 |
| 20260508040511 | 57 | 360 | 9.0 | 16.0 | 0.00 | 0.00 | 0.00 | 39 | 923.7 |
| 20260508040044 | 57 | 360 | 11.0 | 21.0 | 0.00 | 0.00 | 0.00 | 39 | 923.7 |
| 20260508035511 | 58 | 360 | 15.0 | 21.0 | 0.00 | 0.00 | 0.00 | 39 | 923.8 |
| 20260508035015 | 59 | 360 | 11.0 | 14.0 | 0.00 | 0.00 | 0.00 | 32 | 923.8 |
| 20260508034539 | 59 | 360 | 9.0 | 12.0 | 0.00 | 0.00 | 0.00 | 32 | 923.5 |
| 20260508034015 | 59 | 360 | 7.0 | 13.0 | 0.00 | 0.00 | 0.00 | 32 | 923.5 |
| 20260508033512 | 59 | 360 | 10.0 | 13.0 | 0.00 | 0.00 | 0.00 | 33 | 923.4 |
| 20260508033039 | 58 | 360 | 10.0 | 25.0 | 0.00 | 0.00 | 0.00 | 35 | 923.8 |
| 20260508032515 | 58 | 360 | 15.0 | 25.0 | 0.00 | 0.00 | 0.00 | 36 | 923.9 |
| 20260508032011 | 58 | 360 | 17.0 | 33.0 | 0.00 | 0.00 | 0.00 | 36 | 923.6 |
| 20260508031539 | 58 | 360 | 22.0 | 33.0 | 0.00 | 0.00 | 0.00 | 36 | 923.2 |
| 20260508031014 | 58 | 360 | 24.0 | 38.0 | 0.00 | 0.00 | 0.00 | 36 | 923.1 |
| 20260508030511 | 59 | 360 | 30.0 | 38.0 | 0.00 | 0.00 | 0.00 | 35 | 923.5 |
| 20260508030035 | 59 | 360 | 20.0 | 27.0 | 0.00 | 0.00 | 0.00 | 33 | 923.5 |
| 20260508025514 | 59 | 360 | 12.0 | 16.0 | 0.00 | 0.00 | 0.00 | 33 | 923.5 |
| 20260508025015 | 59 | 360 | 12.0 | 15.0 | 0.00 | 0.00 | 0.00 | 33 | 923.6 |
| 20260508024547 | 59 | 360 | 11.0 | 15.0 | 0.00 | 0.00 | 0.00 | 33 | 923.4 |
| 20260508024014 | 58 | 360 | 10.0 | 14.0 | 0.00 | 0.00 | 0.00 | 34 | 923.4 |
| 20260508023515 | 58 | 360 | 10.0 | 14.0 | 0.00 | 0.00 | 0.00 | 35 | 923.4 |
| 20260508023039 | 58 | 360 | 7.0 | 10.0 | 0.00 | 0.00 | 0.00 | 35 | 923.3 |
| 20260508022512 | 58 | 360 | 6.0 | 12.0 | 0.00 | 0.00 | 0.00 | 35 | 923.2 |
| 20260508022017 | 58 | 360 | 7.0 | 12.0 | 0.00 | 0.00 | 0.00 | 35 | 922.9 |
| 20260508021541 | 58 | 360 | 9.0 | 15.0 | 0.00 | 0.00 | 0.00 | 35 | 923.1 |
| 20260508021019 | 58 | 360 | 10.0 | 16.0 | 0.00 | 0.00 | 0.00 | 35 | 923.0 |
| 20260508020516 | 59 | 360 | 11.0 | 20.0 | 0.00 | 0.00 | 0.00 | 34 | 923.1 |
| 20260508020044 | 59 | 360 | 15.0 | 20.0 | 0.00 | 0.00 | 0.00 | 34 | 923.0 |
| 20260508015514 | 60 | 360 | 14.0 | 20.0 | 0.00 | 0.00 | 0.00 | 32 | 922.8 |
| 20260508015011 | 60 | 360 | 14.0 | 19.0 | 0.00 | 0.00 | 0.00 | 31 | 923.0 |
| 20260508014551 | 61 | 360 | 14.0 | 19.0 | 0.00 | 0.00 | 0.00 | 30 | 922.9 |
| 20260508014014 | 61 | 360 | 12.0 | 17.0 | 0.00 | 0.00 | 0.00 | 32 | 922.9 |
| 20260508013514 | 60 | 360 | 11.0 | 18.0 | 0.00 | 0.00 | 0.00 | 33 | 922.8 |
| 20260508013044 | 60 | 360 | 13.0 | 21.0 | 0.00 | 0.00 | 0.00 | 34 | 922.7 |
| 20260508012518 | 61 | 360 | 16.0 | 23.0 | 0.00 | 0.00 | 0.00 | 34 | 922.8 |
| 20260508012015 | 61 | 360 | 18.0 | 23.0 | 0.00 | 0.00 | 0.00 | 33 | 922.8 |
| 20260508011543 | 62 | 360 | 14.0 | 18.0 | 0.00 | 0.00 | 0.00 | 31 | 922.7 |
| 20260508011011 | 62 | 360 | 12.0 | 15.0 | 0.00 | 0.00 | 0.00 | 30 | 922.4 |
| 20260508010515 | 62 | 360 | 12.0 | 15.0 | 0.00 | 0.00 | 0.00 | 30 | 922.4 |
| 20260508010049 | 62 | 360 | 11.0 | 16.0 | 0.00 | 0.00 | 0.00 | 31 | 922.4 |
| 20260508005517 | 62 | 360 | 11.0 | 19.0 | 0.00 | 0.00 | 0.00 | 31 | 922.4 |
| 20260508005017 | 62 | 360 | 14.0 | 19.0 | 0.00 | 0.00 | 0.00 | 31 | 922.5 |
| 20260508004545 | 62 | 360 | 13.0 | 20.0 | 0.00 | 0.00 | 0.00 | 30 | 922.5 |
| 20260508004015 | 62 | 360 | 14.0 | 21.0 | 0.00 | 0.00 | 0.00 | 30 | 922.8 |
| 20260508003515 | 63 | 360 | 16.0 | 23.0 | 0.00 | 0.00 | 0.00 | 29 | 922.9 |
| 20260508003057 | 64 | 360 | 17.0 | 23.0 | 0.00 | 0.00 | 0.00 | 28 | 922.7 |
| 20260508002517 | 65 | 360 | 10.0 | 18.0 | 0.00 | 0.00 | 0.00 | 29 | 922.6 |
| 20260508002019 | 65 | 360 | 12.0 | 17.0 | 0.00 | 0.00 | 0.00 | 29 | 922.5 |
| 20260508001547 | 65 | 360 | 10.0 | 17.0 | 0.00 | 0.00 | 0.00 | 29 | 922.5 |
| 20260508001016 | 65 | 360 | 11.0 | 15.0 | 0.00 | 0.00 | 0.00 | 30 | 922.6 |
| 20260508000513 | 65 | 360 | 10.0 | 16.0 | 0.00 | 0.00 | 0.00 | 30 | 922.7 |
| 20260508000046 | 65 | 360 | 11.0 | 15.0 | 0.00 | 0.00 | 0.00 | 29 | 922.8 |
| 20260507235517 | 65 | 360 | 12.0 | 15.0 | 0.00 | 0.00 | 0.00 | 28 | 922.6 |
| 20260507235014 | 65 | 360 | 11.0 | 19.0 | 0.00 | 0.00 | 0.00 | 28 | 922.5 |
| 20260507234545 | 66 | 360 | 14.0 | 19.0 | 0.00 | 0.00 | 0.00 | 28 | 922.5 |
| 20260507234013 | 66 | 360 | 13.0 | 18.0 | 0.00 | 0.00 | 0.00 | 27 | 922.6 |
| 20260507233516 | 66 | 360 | 12.0 | 17.0 | 0.00 | 0.00 | 0.00 | 27 | 922.5 |
| 20260507233045 | 66 | 360 | 12.0 | 18.0 | 0.00 | 0.00 | 0.00 | 28 | 922.5 |
| 20260507232518 | 65 | 360 | 12.0 | 19.0 | 0.00 | 0.00 | 0.00 | 28 | 922.5 |
| 20260507232015 | 66 | 360 | 14.0 | 19.0 | 0.00 | 0.00 | 0.00 | 28 | 922.5 |
| 20260507231549 | 65 | 360 | 13.0 | 18.0 | 0.00 | 0.00 | 0.00 | 28 | 922.6 |
| 20260507231019 | 65 | 360 | 14.0 | 21.0 | 0.00 | 0.00 | 0.00 | 28 | 922.6 |
| 20260507230516 | 66 | 360 | 16.0 | 23.0 | 0.00 | 0.00 | 0.00 | 27 | 922.7 |
| 20260507230050 | 67 | 360 | 15.0 | 23.0 | 0.00 | 0.00 | 0.00 | 28 | 922.5 |
| 20260507225521 | 66 | 360 | 16.0 | 22.0 | 0.00 | 0.00 | 0.00 | 30 | 922.6 |
| 20260507225016 | 65 | 360 | 13.0 | 23.0 | 0.00 | 0.00 | 0.00 | 31 | 922.7 |
| 20260507224602 | 64 | 360 | 14.0 | 23.0 | 0.00 | 0.00 | 0.00 | 33 | 922.8 |
| 20260507224015 | 63 | 360 | 18.0 | 23.0 | 0.00 | 0.00 | 0.00 | 33 | 922.5 |
| 20260507223517 | 63 | 360 | 18.0 | 24.0 | 0.00 | 0.00 | 0.00 | 33 | 922.7 |
| 20260507223058 | 64 | 360 | 20.0 | 26.0 | 0.00 | 0.00 | 0.00 | 32 | 922.7 |
| 20260507222516 | 65 | 360 | 20.0 | 26.0 | 0.00 | 0.00 | 0.00 | 30 | 922.7 |
| 20260507222014 | 65 | 360 | 20.0 | 26.0 | 0.00 | 0.00 | 0.00 | 31 | 922.7 |
| 20260507221544 | 64 | 360 | 21.0 | 27.0 | 0.00 | 0.00 | 0.00 | 31 | 922.9 |
| 20260507221015 | 63 | 360 | 22.0 | 27.0 | 0.00 | 0.00 | 0.00 | 33 | 923.0 |
| 20260507220516 | 62 | 360 | 21.0 | 30.0 | 0.00 | 0.00 | 0.00 | 35 | 923.1 |
| 20260507220042 | 63 | 360 | 23.0 | 30.0 | 0.00 | 0.00 | 0.00 | 34 | 923.0 |
| 20260507215514 | 64 | 360 | 24.0 | 30.0 | 0.00 | 0.00 | 0.00 | 34 | 922.9 |
| 20260507215015 | 64 | 360 | 23.0 | 30.0 | 0.00 | 0.00 | 0.00 | 34 | 923.1 |
| 20260507214552 | 64 | 360 | 19.0 | 28.0 | 0.00 | 0.00 | 0.00 | 30 | 923.1 |
| 20260507214016 | 64 | 360 | 22.0 | 28.0 | 0.00 | 0.00 | 0.00 | 30 | 923.0 |
| 20260507213516 | 67 | 360 | 6.0 | 19.0 | 0.00 | 0.00 | 0.00 | 23 | 923.2 |
| 20260507213046 | 67 | 360 | 2.0 | 8.0 | 0.00 | 0.00 | 0.00 | 22 | 923.2 |
| 20260507212515 | 67 | 360 | 3.0 | 9.0 | 0.00 | 0.00 | 0.00 | 22 | 923.2 |
| 20260507212016 | 66 | 360 | 3.0 | 9.0 | 0.00 | 0.00 | 0.00 | 23 | 923.0 |
| 20260507211601 | 66 | 360 | 4.0 | 8.0 | 0.00 | 0.00 | 0.00 | 23 | 923.1 |
| 20260507211015 | 66 | 360 | 3.0 | 10.0 | 0.00 | 0.00 | 0.00 | 23 | 923.1 |
| 20260507210515 | 66 | 360 | 6.0 | 11.0 | 0.00 | 0.00 | 0.00 | 23 | 923.0 |
| 20260507210055 | 66 | 360 | 6.0 | 12.0 | 0.00 | 0.00 | 0.00 | 23 | 923.2 |
| 20260507205515 | 66 | 360 | 10.0 | 15.0 | 0.00 | 0.00 | 0.00 | 23 | 923.1 |
| 20260507205015 | 66 | 360 | 8.0 | 17.0 | 0.00 | 0.00 | 0.00 | 23 | 923.1 |
| 20260507204600 | 67 | 360 | 10.0 | 13.0 | 0.00 | 0.00 | 0.00 | 22 | 923.1 |
| 20260507204013 | 67 | 360 | 6.0 | 17.0 | 0.00 | 0.00 | 0.00 | 22 | 923.2 |
| 20260507203516 | 67 | 360 | 4.0 | 10.0 | 0.00 | 0.00 | 0.00 | 22 | 923.1 |
| 20260507203047 | 67 | 360 | 1.0 | 12.0 | 0.00 | 0.00 | 0.00 | 22 | 923.0 |
| 20260507202515 | 67 | 360 | 7.0 | 14.0 | 0.00 | 0.00 | 0.00 | 22 | 923.2 |
| 20260507202014 | 67 | 360 | 10.0 | 15.0 | 0.00 | 0.00 | 0.00 | 21 | 923.4 |
| 20260507201604 | 67 | 360 | 8.0 | 13.0 | 0.00 | 0.00 | 0.00 | 22 | 923.0 |
| 20260507201014 | 67 | 360 | 6.0 | 14.0 | 0.00 | 0.00 | 0.00 | 22 | 923.3 |
| 20260507200517 | 67 | 360 | 5.0 | 14.0 | 0.00 | 0.00 | 0.00 | 23 | 923.4 |
| 20260507195516 | 67 | 360 | 3.0 | 10.0 | 0.00 | 0.00 | 0.00 | 23 | 923.2 |
| 20260507195017 | 67 | 360 | 1.0 | 14.0 | 0.00 | 0.00 | 0.00 | 22 | 923.2 |
| 20260507194556 | 67 | 360 | 10.0 | 14.0 | 0.00 | 0.00 | 0.00 | 22 | 923.2 |
| 20260507194015 | 66 | 360 | 6.0 | 12.0 | 0.00 | 0.00 | 0.00 | 24 | 923.4 |
| 20260507193516 | 65 | 360 | 4.0 | 8.0 | 0.00 | 0.00 | 0.00 | 25 | 923.1 |
| 20260507193049 | 65 | 360 | 3.0 | 8.0 | 0.00 | 0.00 | 0.00 | 25 | 923.3 |
| 20260507192517 | 65 | 360 | 3.0 | 8.0 | 0.00 | 0.00 | 0.00 | 25 | 923.3 |
| 20260507192017 | 65 | 360 | 1.0 | 9.0 | 0.00 | 0.00 | 0.00 | 24 | 923.4 |
| 20260507191553 | 65 | 360 | 4.0 | 9.0 | 0.00 | 0.00 | 0.00 | 24 | 923.3 |
| 20260507191016 | 65 | 360 | 3.0 | 14.0 | 0.00 | 0.00 | 0.00 | 24 | 923.3 |
| 20260507190514 | 65 | 360 | 7.0 | 15.0 | 0.00 | 0.00 | 0.00 | 26 | 923.3 |
| 20260507190054 | 65 | 360 | 9.0 | 15.0 | 0.00 | 0.00 | 0.00 | 25 | 923.0 |
| 20260507185514 | 65 | 360 | 4.0 | 14.0 | 0.00 | 0.00 | 0.00 | 25 | 923.1 |
| 20260507185013 | 65 | 360 | 5.0 | 14.0 | 0.00 | 0.00 | 0.00 | 24 | 923.1 |
| 20260507184550 | 65 | 360 | 3.0 | 10.0 | 0.00 | 0.00 | 0.00 | 25 | 923.3 |
| 20260507184018 | 65 | 360 | 2.0 | 10.0 | 0.00 | 0.00 | 0.00 | 25 | 923.3 |
| 20260507183514 | 64 | 360 | 4.0 | 14.0 | 0.00 | 0.00 | 0.00 | 26 | 923.2 |
| 20260507183048 | 64 | 360 | 9.0 | 19.0 | 0.00 | 0.00 | 0.00 | 26 | 923.3 |
| 20260507182516 | 64 | 360 | 6.0 | 16.0 | 0.00 | 0.00 | 0.00 | 26 | 923.3 |
| 20260507182017 | 64 | 360 | 6.0 | 12.0 | 0.00 | 0.00 | 0.00 | 26 | 923.5 |
| 20260507181550 | 64 | 360 | 7.0 | 14.0 | 0.00 | 0.00 | 0.00 | 25 | 923.4 |
| 20260507181018 | 65 | 360 | 10.0 | 16.0 | 0.00 | 0.00 | 0.00 | 25 | 923.2 |
| 20260507180513 | 65 | 360 | 12.0 | 16.0 | 0.00 | 0.00 | 0.00 | 25 | 923.5 |
| 20260507180049 | 65 | 360 | 0.0 | 6.0 | 0.00 | 0.00 | 0.00 | 25 | 923.7 |
| 20260507175518 | 65 | 360 | 3.0 | 9.0 | 0.00 | 0.00 | 0.00 | 25 | 923.4 |
| 20260507175015 | 65 | 360 | 4.0 | 11.0 | 0.00 | 0.00 | 0.00 | 26 | 923.5 |
| 20260507174555 | 64 | 360 | 3.0 | 14.0 | 0.00 | 0.00 | 0.00 | 27 | 923.7 |
| 20260507174016 | 63 | 360 | 8.0 | 19.0 | 0.00 | 0.00 | 0.00 | 27 | 923.8 |
| 20260507173517 | 63 | 360 | 13.0 | 19.0 | 0.00 | 0.00 | 0.00 | 26 | 923.6 |
| 20260507173048 | 63 | 360 | 9.0 | 18.0 | 0.00 | 0.00 | 0.00 | 26 | 923.6 |
| 20260507172517 | 64 | 360 | 12.0 | 18.0 | 0.00 | 0.00 | 0.00 | 26 | 923.8 |
| 20260507172014 | 64 | 360 | 10.0 | 16.0 | 0.00 | 0.00 | 0.00 | 26 | 923.8 |
| 20260507171555 | 64 | 360 | 4.0 | 15.0 | 0.00 | 0.00 | 0.00 | 27 | 923.9 |
| 20260507171015 | 64 | 360 | 6.0 | 15.0 | 0.00 | 0.00 | 0.00 | 27 | 923.9 |
| 20260507170513 | 63 | 360 | 11.0 | 15.0 | 0.00 | 0.00 | 0.00 | 27 | 923.8 |
| 20260507170053 | 63 | 360 | 6.0 | 15.0 | 0.00 | 0.00 | 0.00 | 27 | 923.9 |
| 20260507165517 | 63 | 360 | 3.0 | 14.0 | 0.00 | 0.00 | 0.00 | 27 | 923.8 |
| 20260507165017 | 63 | 360 | 8.0 | 14.0 | 0.00 | 0.00 | 0.00 | 27 | 923.7 |
| 20260507164553 | 63 | 360 | 2.0 | 18.0 | 0.00 | 0.00 | 0.00 | 27 | 923.9 |
| 20260507164015 | 63 | 360 | 11.0 | 18.0 | 0.00 | 0.00 | 0.00 | 28 | 923.7 |
| 20260507163517 | 63 | 360 | 8.0 | 16.0 | 0.00 | 0.00 | 0.00 | 28 | 923.9 |
| 20260507163052 | 63 | 360 | 8.0 | 16.0 | 0.00 | 0.00 | 0.00 | 27 | 923.9 |
| 20260507162515 | 63 | 360 | 7.0 | 17.0 | 0.00 | 0.00 | 0.00 | 28 | 924.0 |
| 20260507162016 | 63 | 360 | 10.0 | 17.0 | 0.00 | 0.00 | 0.00 | 28 | 924.0 |
| 20260507161549 | 63 | 360 | 3.0 | 14.0 | 0.00 | 0.00 | 0.00 | 28 | 923.9 |
| 20260507161014 | 63 | 360 | 7.0 | 13.0 | 0.00 | 0.00 | 0.00 | 28 | 924.0 |
| 20260507160516 | 62 | 360 | 6.0 | 12.0 | 0.00 | 0.00 | 0.00 | 28 | 923.8 |
| 20260507160052 | 62 | 360 | 6.0 | 11.0 | 0.00 | 0.00 | 0.00 | 29 | 923.8 |
| 20260507155517 | 62 | 360 | 7.0 | 10.0 | 0.00 | 0.00 | 0.00 | 29 | 923.8 |
| 20260507155016 | 61 | 360 | 3.0 | 9.0 | 0.00 | 0.00 | 0.00 | 30 | 924.0 |
| 20260507154547 | 61 | 360 | 3.0 | 11.0 | 0.00 | 0.00 | 0.00 | 30 | 923.8 |
| 20260507154017 | 60 | 360 | 6.0 | 11.0 | 0.00 | 0.00 | 0.00 | 30 | 923.8 |
| 20260507153518 | 60 | 360 | 3.0 | 11.0 | 0.00 | 0.00 | 0.00 | 30 | 923.7 |
| 20260507153059 | 60 | 360 | 7.0 | 11.0 | 0.00 | 0.00 | 0.00 | 30 | 923.6 |
| 20260507152519 | 60 | 360 | 6.0 | 10.0 | 0.00 | 0.00 | 0.00 | 30 | 923.7 |
| 20260507152015 | 60 | 360 | 3.0 | 10.0 | 0.00 | 0.00 | 0.00 | 29 | 923.7 |
| 20260507151550 | 60 | 360 | 5.0 | 9.0 | 0.00 | 0.00 | 0.00 | 29 | 923.8 |
| 20260507151015 | 60 | 360 | 4.0 | 8.0 | 0.00 | 0.00 | 0.00 | 30 | 923.7 |
| 20260507150518 | 59 | 360 | 3.0 | 11.0 | 0.00 | 0.00 | 0.00 | 30 | 923.8 |
| 20260507150045 | 59 | 360 | 3.0 | 11.0 | 0.00 | 0.00 | 0.00 | 30 | 923.8 |
| 20260507145514 | 59 | 360 | 5.0 | 9.0 | 0.00 | 0.00 | 0.00 | 30 | 923.7 |
| 20260507145017 | 58 | 360 | 3.0 | 9.0 | 0.00 | 0.00 | 0.00 | 30 | 923.7 |
| 20260507144545 | 58 | 360 | 6.0 | 9.0 | 0.00 | 0.00 | 0.00 | 30 | 923.6 |
| 20260507144015 | 58 | 360 | 6.0 | 11.0 | 0.00 | 0.00 | 0.00 | 31 | 923.6 |
| 20260507143515 | 58 | 360 | 8.0 | 11.0 | 0.00 | 0.00 | 0.00 | 31 | 923.6 |
| 20260507143047 | 57 | 360 | 8.0 | 12.0 | 0.00 | 0.00 | 0.00 | 32 | 923.5 |
| 20260507142516 | 57 | 360 | 8.0 | 12.0 | 0.00 | 0.00 | 0.00 | 32 | 923.5 |
| 20260507142013 | 56 | 360 | 5.0 | 9.0 | 0.00 | 0.00 | 0.00 | 34 | 923.5 |
| 20260507141550 | 56 | 360 | 4.0 | 8.0 | 0.00 | 0.00 | 0.00 | 35 | 923.5 |
| 20260507141015 | 55 | 360 | 4.0 | 6.0 | 0.00 | 0.00 | 0.00 | 37 | 923.6 |
| 20260507140517 | 54 | 360 | 3.0 | 8.0 | 0.00 | 0.00 | 0.00 | 38 | 923.6 |
| 20260507140105 | 53 | 360 | 4.0 | 8.0 | 0.00 | 0.00 | 0.00 | 38 | 923.5 |
| 20260507135517 | 53 | 360 | 6.0 | 8.0 | 0.00 | 0.00 | 0.00 | 39 | 923.7 |
| 20260507135014 | 52 | 360 | 6.0 | 8.0 | 0.00 | 0.00 | 0.00 | 40 | 923.5 |
| 20260507134550 | 51 | 360 | 3.0 | 5.0 | 0.00 | 0.00 | 0.00 | 42 | 923.5 |
| 20260507134018 | 50 | 360 | 3.0 | 6.0 | 0.00 | 0.00 | 0.00 | 42 | 923.4 |
| 20260507133518 | 49 | 360 | 4.0 | 6.0 | 0.00 | 0.00 | 0.00 | 43 | 923.3 |
| 20260507133049 | 48 | 360 | 5.0 | 6.0 | 0.00 | 0.00 | 0.00 | 44 | 923.2 |
| 20260507132516 | 48 | 360 | 2.0 | 6.0 | 0.00 | 0.00 | 0.00 | 44 | 923.3 |
| 20260507132020 | 47 | 360 | 3.0 | 6.0 | 0.00 | 0.00 | 0.00 | 45 | 923.2 |
| 20260507131550 | 46 | 360 | 2.0 | 4.0 | 0.00 | 0.00 | 0.00 | 46 | 923.4 |
| 20260507131015 | 46 | 360 | 2.0 | 4.0 | 0.00 | 0.00 | 0.00 | 45 | 923.2 |
| 20260507130517 | 46 | 360 | 2.0 | 4.0 | 0.00 | 0.00 | 0.00 | 45 | 923.2 |
| 20260507130056 | 46 | 360 | 2.0 | 6.0 | 0.00 | 0.00 | 0.00 | 45 | 923.1 |
| 20260507125517 | 46 | 360 | 4.0 | 6.0 | 0.00 | 0.00 | 0.00 | 45 | 923.1 |
| 20260507125016 | 45 | 360 | 4.0 | 9.0 | 0.00 | 0.00 | 0.00 | 46 | 923.1 |
| 20260507124555 | 45 | 360 | 5.0 | 9.0 | 0.00 | 0.00 | 0.00 | 46 | 923.0 |
| 20260507124019 | 45 | 360 | 5.0 | 9.0 | 0.00 | 0.00 | 0.00 | 46 | 922.9 |
| 20260507123519 | 45 | 360 | 7.0 | 9.0 | 0.00 | 0.00 | 0.00 | 46 | 923.0 |
| 20260507123030 | 44 | 360 | 7.0 | 9.0 | 0.00 | 0.00 | 0.00 | 46 | 922.7 |
| 20260507122516 | 45 | 360 | 5.0 | 9.0 | 0.00 | 0.00 | 0.00 | 45 | 922.5 |
| 20260507122012 | 45 | 360 | 7.0 | 10.0 | 0.00 | 0.00 | 0.00 | 45 | 922.6 |
| 20260507121530 | 45 | 360 | 8.0 | 10.0 | 0.00 | 0.00 | 0.00 | 44 | 922.6 |
| 20260507121011 | 46 | 360 | 8.0 | 10.0 | 0.00 | 0.00 | 0.00 | 44 | 922.6 |
| 20260507120512 | 46 | 360 | 5.0 | 6.0 | 0.00 | 0.00 | 0.00 | 43 | 922.3 |
| 20260507120027 | 47 | 360 | 2.0 | 4.0 | 0.00 | 0.00 | 0.00 | 42 | 922.2 |
| 20260507115516 | 47 | 360 | 2.0 | 4.0 | 0.00 | 0.00 | 0.00 | 42 | 922.3 |
| 20260507115014 | 47 | 360 | 2.0 | 4.0 | 0.00 | 0.00 | 0.00 | 42 | 922.1 |
| 20260507114531 | 47 | 360 | 2.0 | 4.0 | 0.00 | 0.00 | 0.00 | 41 | 922.2 |
| 20260507114011 | 48 | 360 | 2.0 | 3.0 | 0.00 | 0.00 | 0.00 | 41 | 922.1 |
| 20260507113513 | 47 | 360 | 0.0 | 5.0 | 0.00 | 0.00 | 0.00 | 42 | 922.1 |
| 20260507113034 | 47 | 360 | 2.0 | 5.0 | 0.00 | 0.00 | 0.00 | 41 | 922.2 |
| 20260507112512 | 47 | 360 | 3.0 | 5.0 | 0.00 | 0.00 | 0.00 | 39 | 922.3 |
| 20260507112012 | 48 | 360 | 0.0 | 5.0 | 0.00 | 0.00 | 0.00 | 40 | 922.2 |
| 20260507111533 | 48 | 360 | 3.0 | 5.0 | 0.00 | 0.00 | 0.00 | 40 | 922.1 |
| 20260507111013 | 47 | 360 | 4.0 | 5.0 | 0.00 | 0.00 | 0.00 | 42 | 921.9 |
| 20260507110509 | 46 | 360 | 1.0 | 5.0 | 0.00 | 0.00 | 0.00 | 43 | 922.1 |
| 20260507110028 | 46 | 360 | 2.0 | 5.0 | 0.00 | 0.00 | 0.00 | 42 | 922.0 |
| 20260507105513 | 46 | 360 | 4.0 | 5.0 | 0.00 | 0.00 | 0.00 | 42 | 922.0 |
| 20260507105010 | 46 | 360 | 2.0 | 3.0 | 0.00 | 0.00 | 0.00 | 41 | 921.9 |
| 20260507104531 | 46 | 360 | 0.0 | 4.0 | 0.00 | 0.00 | 0.00 | 41 | 921.9 |
| 20260507104010 | 46 | 360 | 2.0 | 5.0 | 0.00 | 0.00 | 0.00 | 40 | 921.9 |
| 20260507103511 | 47 | 360 | 3.0 | 5.0 | 0.00 | 0.00 | 0.00 | 40 | 922.0 |
| 20260507103031 | 47 | 360 | 4.0 | 5.0 | 0.00 | 0.00 | 0.00 | 40 | 922.0 |
| 20260507102512 | 47 | 360 | 3.0 | 5.0 | 0.00 | 0.00 | 0.00 | 40 | 922.1 |
| 20260507102012 | 47 | 360 | 3.0 | 5.0 | 0.00 | 0.00 | 0.00 | 40 | 921.9 |
| 20260507101549 | 47 | 360 | 3.0 | 5.0 | 0.00 | 0.00 | 0.00 | 39 | 922.0 |
| 20260507101013 | 48 | 360 | 4.0 | 8.0 | 0.00 | 0.00 | 0.00 | 39 | 922.1 |
| 20260507100511 | 47 | 360 | 5.0 | 8.0 | 0.00 | 0.00 | 0.00 | 39 | 922.0 |
| 20260507100034 | 47 | 360 | 5.0 | 6.0 | 0.00 | 0.00 | 0.00 | 39 | 922.1 |
| 20260507095510 | 48 | 360 | 4.0 | 5.0 | 0.00 | 0.00 | 0.00 | 39 | 922.0 |
| 20260507095016 | 48 | 360 | 3.0 | 5.0 | 0.00 | 0.00 | 0.00 | 39 | 922.0 |
| 20260507094529 | 48 | 360 | 4.0 | 5.0 | 0.00 | 0.00 | 0.00 | 38 | 922.1 |
| 20260507094011 | 48 | 360 | 3.0 | 4.0 | 0.00 | 0.00 | 0.00 | 38 | 921.9 |
| 20260507093510 | 48 | 360 | 1.0 | 3.0 | 0.00 | 0.00 | 0.00 | 37 | 921.9 |
| 20260507093032 | 48 | 360 | 1.0 | 3.0 | 0.00 | 0.00 | 0.00 | 36 | 921.7 |
| 20260507092519 | 48 | 360 | 1.0 | 4.0 | 0.00 | 0.00 | 0.00 | 35 | 921.8 |
| 20260507092009 | 49 | 360 | 2.0 | 4.0 | 0.00 | 0.00 | 0.00 | 35 | 921.7 |
| 20260507091550 | 48 | 360 | 0.0 | 2.0 | 0.00 | 0.00 | 0.00 | 36 | 921.5 |
| 20260507091015 | 48 | 360 | 0.0 | 3.0 | 0.00 | 0.00 | 0.00 | 36 | 921.5 |
| 20260507090513 | 49 | 360 | 1.0 | 9.0 | 0.00 | 0.00 | 0.00 | 36 | 921.4 |
| 20260507090032 | 48 | 360 | 5.0 | 10.0 | 0.00 | 0.00 | 0.00 | 37 | 921.2 |
| 20260507085511 | 49 | 360 | 8.0 | 10.0 | 0.00 | 0.00 | 0.00 | 36 | 921.1 |
| 20260507085011 | 49 | 360 | 5.0 | 10.0 | 0.00 | 0.00 | 0.00 | 37 | 921.1 |